Flag for Brazil

Past Weather in São José do Rio Preto, São Paulo, Brazil — Yesterday and Last 2 Weeks

Now
79 °F

Clear.


Feels Like: 80 °F
Forecast: 91 / 66 °F
Wind: 2 mph from Southeast

Location: Leite Lopes / Ribeir
Current Time: Sep 19, 2020 at 9:36:51 pm
Latest Report: Sep 19, 2020 at 9:00 pm
Visibility: 1 mi
Pressure29.95 "Hg(28.28 "Hg at 503m altitude)
Humidity: 51%
Dew Point: 59 °F
Location of São José do Rio PretoLocation

Past Weather in São José do Rio Preto — Graph

°F

São José do Rio Preto Temperature Yesterday

Maximum temperature yesterday: 99 °F (at 2:00 pm)
Minimum temperature yesterday: 66 °F (at 6:00 am)
Average temperature yesterday: 83 °F

High & Low Weather Summary for the Past Weeks

 TemperatureHumidityPressure
High99 °F (Sep 9, 2:00 pm)73% (Sep 15, 5:00 am)30.18 "Hg (Sep 15, 5:00 am)
Low57 °F (Sep 7, 5:00 am)11% (Sep 5, 3:00 pm)29.83 "Hg (Sep 17, 4:00 pm)
Average81 °F33%30.00 "Hg
* Reported Sep 4 8:00 pm — Sep 19 8:00 pm, São José do Rio Preto. Weather by CustomWeather, © 2020

Note: Actual official high and low records may vary slightly from our data, if they occured in-between our weather recording intervals... More about our weather records

São José do Rio Preto Weather History for the Previous 24 Hours

Scroll right to see more
 ConditionsComfort  
Time TempWeatherWind HumidityBarometerVisibility
8:00 pm
Sat, Sep 19
79 °FClear.No wind54%29.95 "Hg1 mi
7:00 pm81 °FClear.No wind45%29.92 "Hg1 mi
6:00 pm82 °FClear.No wind42%29.92 "Hg1 mi
5:00 pm84 °FClear.No wind37%29.92 "Hg2 mi
4:00 pm84 °FClear.3 mph33%29.92 "Hg2 mi
3:00 pm84 °FClear.3 mph35%29.92 "Hg1 mi
2:00 pm81 °FClear.2 mph42%29.92 "Hg1 mi
1:00 pm81 °FClear.7 mph42%29.95 "Hg1 mi
12:00 pm77 °FHaze.5 mph51%29.98 "Hg2 mi
11:00 am75 °FHaze.2 mph50%29.98 "Hg2 mi
10:00 am73 °FHaze.6 mph57%29.98 "Hg2 mi
9:00 am75 °FHaze.7 mph47%29.98 "Hg2 mi
8:20 am75 °FHaze.7 mph47%29.98 "Hg2 mi
8:00 am73 °FHaze.7 mph50%29.95 "Hg3 mi
7:00 am70 °FClear.2 mph57%29.95 "Hg4 mi
6:00 am72 °FClear.3 mph53%29.92 "Hg5 mi
5:00 am73 °FClear.5 mph50%29.92 "Hg6 mi
4:00 am73 °FClear.5 mph47%29.89 "Hg6 mi
3:00 am75 °FClear.6 mph44%29.89 "Hg6 mi
2:00 am77 °FClear.6 mph42%29.89 "Hg6 mi
1:00 am77 °FClear.6 mph42%29.92 "Hg6 mi
12:00 am81 °FClear.5 mph34%29.92 "Hg6 mi
11:00 pm
Fri, Sep 18
82 °FClear.5 mph32%29.92 "Hg6 mi
10:00 pm81 °FPassing clouds.3 mph32%29.92 "Hg6 mi
9:00 pm86 °FPassing clouds.No wind25%29.89 "Hg6 mi
Weather by CustomWeather, © 2020

See weather overview